Theta_e
286 286 286 286 286 286 286 285 284 283 282 282 281 281 280 279 279 279 279 279 279 279 279 279 280 280 280 281 281 282 284 285 287 286 286 286 286 286 286 286 288 291 293
286 286 286 286 286 286 286 285 284 283 282 281 280 280 280 279 279 278 278 278 278 278 278 278 278 279 280 280 281 281 282 283 284 284 285 285 286 286 286 286 286 286 287
286 286 286 286 286 285 285 284 283 282 281 280 279 278 278 277 277 277 277 277 277 278 278 278 278 278 279 279 280 280 281 281 282 283 283 284 284 285 286 286 286 286 286
286 286 286 286 285 284 284 284 283 280 280 279 278 277 277 276 275 275 275 276 276 276 276 277 277 278 278 278 278 279 280 281 281 282 282 282 283 284 284 286 286 287 287
286 286 286 285 285 284 284 283 281 279 279 278 278 277 276 274 273 274 274 274 274 274 275 275 275 276 276 277 278 279 279 280 280 280 281 282 282 283 284 285 285 286 286
286 285 285 284 283 282 281 279 278 277 277 276 275 274 273 272 271 272 273 273 273 273 272 272 272 272 273 274 275 276 278 279 279 280 280 281 281 282 283 284 284 285 286
285 285 284 282 281 279 278 278 277 276 275 274 273 272 271 270 270 271 272 272 271 271 271 271 271 271 271 271 271 272 273 274 275 276 277 278 279 279 280 281 283 285 285
284 284 282 281 279 278 277 277 276 275 274 273 272 271 269 269 269 270 271 271 270 269 269 270 270 270 270 270 271 272 272 273 273 273 274 274 275 276 276 277 278 279 281
283 282 280 279 278 277 277 276 275 274 273 272 269 269 269 269 269 269 270 269 269 269 269 269 269 270 270 271 272 273 273 273 273 274 275 275 276 277 277 278 278 279 281
281 279 278 278 277 276 275 274 273 272 271 270 269 269 269 269 268 267 269 270 270 269 270 270 270 271 272 273 274 274 274 273 273 273 273 273 274 274 274 275 276 277 278
279 278 277 276 276 275 273 272 271 270 269 269 268 268 268 268 268 267 269 270 270 271 271 272 271 272 272 273 274 274 274 274 275 275 275 275 274 274 274 274 275 276 277
277 276 275 274 274 273 273 272 271 269 268 267 266 266 266 267 267 267 269 271 272 272 272 272 272 273 274 275 276 276 277 277 277 276 275 274 274 274 274 274 274 275 276
275 274 274 273 272 272 271 271 269 268 266 265 264 264 265 267 267 268 270 271 272 273 273 273 274 275 275 275 275 276 276 275 275 275 274 274 274 274 273 273 273 273 273
274 273 272 271 271 270 270 269 268 267 266 264 264 265 267 269 269 269 270 272 272 272 273 274 273 272 271 271 271 272 273 274 274 274 274 274 274 274 274 273 273 273 274
272 271 271 270 269 268 268 268 267 267 266 266 268 269 269 269 269 272 272 273 273 273 272 269 268 267 267 267 268 268 269 270 271 272 272 272 272 272 272 273 273 273 273
270 269 268 268 267 266 266 266 267 266 267 269 269 270 269 269 271 271 272 272 272 269 267 264 264 265 265 266 266 267 267 268 270 271 272 272 272 272 273 273 274 275 276
269 268 267 266 266 265 265 263 262 266 265 266 267 267 268 269 269 271 270 270 266 266 263 262 262 263 263 264 265 265 267 268 269 270 273 273 273 273 273 274 274 275 277
268 267 266 266 265 264 264 263 262 261 261 265 265 264 266 267 268 269 268 266 265 263 262 262 262 262 263 263 264 264 266 267 268 271 273 273 272 273 273 274 275 277 280
266 265 265 264 263 263 263 262 262 261 261 262 265 265 265 265 265 265 264 263 262 262 262 262 262 262 263 263 263 265 265 267 268 270 271 273 273 273 274 274 276 277 280
264 264 264 263 263 263 262 262 261 261 261 261 262 263 264 264 264 263 263 262 261 261 262 262 262 263 263 263 264 264 266 266 268 269 270 271 273 274 275 277 278 280 281
263 263 263 262 262 262 262 261 261 261 261 261 262 263 263 265 262 262 262 262 261 262 262 262 263 263 264 264 264 265 266 266 267 268 268 270 271 272 273 275 276 278 280
263 263 262 261 262 261 261 261 261 261 261 261 262 262 261 262 262 263 263 262 262 262 262 262 263 264 264 264 265 265 267 267 267 267 268 269 270 271 272 273 273 274 274
262 261 261 261 261 261 260 261 261 261 261 261 261 261 261 262 262 263 262 262 262 263 263 263 263 264 265 266 267 267 267 268 268 268 268 269 269 270 271 271 272 272 273
261 261 261 260 260 260 260 260 260 260 260 260 261 261 261 261 261 262 261 262 262 262 263 263 263 264 264 266 267 268 268 269 269 269 269 269 269 269 270 270 270 270 270
260 260 260 260 259 259 259 259 259 260 260 260 261 261 261 261 261 261 261 262 262 262 263 263 264 264 265 265 267 268 268 270 269 269 269 269 269 269 268 268 268 269 269
260 260 260 259 259 259 259 259 260 260 260 260 260 260 260 260 260 261 261 261 262 262 263 264 264 265 265 266 267 268 268 269 269 269 269 269 268 268 268 268 268 267 267
Wind_Speed
11 10 9 9 10 11 12 14 15 16 18 20 23 26 28 30 30 31 31 30 32 33 32 30 31 30 29 27 27 25 24 22 18 30 30 29 34 35 35 32 29 30 34
8 6 4 4 6 8 11 13 14 16 17 20 24 27 29 31 32 32 33 33 32 32 31 29 28 26 27 25 26 25 25 24 26 27 28 32 30 30 36 37 35 33 31
8 6 4 2 3 7 10 13 16 18 21 25 28 30 31 32 33 33 31 31 31 31 31 30 29 27 26 24 25 27 27 26 26 28 30 27 33 29 31 35 38 37 35
11 9 8 5 6 8 12 15 18 20 24 28 29 30 30 30 32 28 27 28 31 31 31 31 31 30 29 28 27 27 26 27 26 27 30 27 25 27 30 29 30 30 35
14 13 11 9 9 10 13 15 18 21 24 27 29 30 30 30 23 25 28 29 29 31 31 29 29 29 30 32 32 32 30 29 27 26 29 27 25 21 22 24 28 25 31
18 17 14 12 11 11 12 15 18 21 24 26 27 28 30 27 25 24 25 29 30 30 31 30 30 31 31 31 32 34 35 35 32 27 28 27 30 27 24 25 28 24 15
20 18 16 13 12 11 13 16 19 22 24 26 28 29 31 31 22 23 26 28 29 29 29 29 29 28 29 29 30 32 33 33 36 38 37 36 34 31 25 26 27 26 30
20 19 16 14 12 12 14 17 20 22 25 26 29 27 30 29 24 25 26 28 27 27 27 26 28 29 28 29 31 32 31 30 29 31 33 40 39 39 35 36 38 43 46
20 18 15 13 13 13 16 18 20 22 25 26 25 29 30 33 28 24 26 26 26 27 26 26 28 30 30 29 32 33 34 32 29 31 34 37 39 40 40 38 35 31 27
20 17 14 12 14 15 17 18 20 21 24 25 29 28 29 31 28 24 24 26 27 27 27 29 29 31 31 31 32 32 32 32 30 32 35 37 37 39 36 36 36 30 31
17 14 12 12 14 15 16 17 20 22 24 27 28 29 29 28 31 23 24 27 28 29 27 27 29 33 34 34 34 34 36 37 36 37 36 35 35 34 33 31 35 36 36
15 13 12 12 12 14 17 18 19 21 24 26 27 30 28 30 29 25 26 27 29 31 31 32 34 36 37 38 40 41 43 44 35 25 26 30 33 33 34 34 36 38 41
14 13 13 13 13 14 16 18 20 20 21 24 21 24 28 29 28 25 29 30 33 34 32 35 38 39 37 36 34 35 37 33 31 30 32 35 35 37 37 36 37 38 43
14 13 13 14 14 14 16 16 19 19 20 21 21 21 23 24 24 28 31 29 31 35 33 29 27 31 33 29 29 28 27 28 29 32 34 35 34 32 30 30 32 33 33
14 14 14 15 15 16 16 16 17 18 17 21 21 22 20 22 25 29 31 33 33 31 34 30 30 28 24 25 25 25 25 25 27 29 31 32 31 30 31 30 31 33 31
15 14 14 14 15 16 17 20 15 16 17 18 19 15 19 21 23 26 29 29 30 28 25 25 21 21 22 24 25 27 27 26 27 28 29 28 28 27 28 29 29 26 26
17 16 16 16 16 16 16 17 22 20 14 9 9 13 15 18 22 24 25 26 23 20 22 22 19 21 24 25 25 26 28 30 31 30 27 25 24 26 27 28 30 29 30
19 19 18 17 17 17 17 17 17 19 22 23 17 15 14 16 18 21 21 23 28 24 21 21 22 23 24 25 26 27 30 30 29 29 26 25 25 25 26 26 27 25 25
19 20 19 18 18 17 16 17 17 18 18 20 22 18 17 17 16 17 16 21 23 24 25 23 23 25 26 27 27 28 28 28 29 28 26 25 26 25 26 27 27 28 26
21 21 20 19 18 17 17 17 18 17 17 17 18 19 21 19 24 23 21 22 22 23 25 26 28 27 28 29 29 29 29 29 27 27 27 26 25 22 21 22 22 21 19
21 20 19 19 20 19 18 18 18 17 17 17 17 14 15 18 20 20 22 23 24 25 26 27 28 29 30 30 30 29 28 28 27 27 27 27 26 23 23 20 17 13 8
20 20 20 20 19 19 19 18 17 17 17 17 16 15 12 14 17 18 21 22 23 23 23 24 26 27 29 31 32 31 30 29 29 29 28 27 25 23 21 17 13 10 8
17 18 19 19 19 18 18 18 17 17 17 16 15 16 15 16 17 18 20 22 23 23 22 23 24 26 27 29 30 30 31 29 30 27 26 25 23 21 18 16 14 12 12
18 18 19 20 18 18 18 17 16 16 16 16 16 16 16 18 18 19 20 21 22 23 22 22 22 23 25 27 28 29 32 29 29 24 20 19 19 18 17 16 16 16 15
17 18 18 19 18 17 17 17 16 16 16 16 17 18 18 19 19 19 19 20 21 23 22 21 21 22 23 24 24 25 27 27 27 23 20 17 17 17 17 17 17 18 18
16 16 18 18 18 17 17 17 18 17 18 18 18 18 19 20 20 20 20 20 21 22 21 20 20 20 21 21 21 21 24 24 24 21 19 19 19 18 18 18 19 19 18
Wind_Direction
131 119 102 79 57 43 31 22 11 4 1 357 355 352 349 346 344 341 339 335 331 327 324 321 313 313 310 307 304 298 288 277 265 282 286 290 294 297 299 299 294 288 286
151 136 112 64 30 14 10 3 355 351 350 347 344 341 341 340 337 337 333 331 327 323 319 313 305 307 301 299 299 292 286 281 277 282 284 290 287 290 294 295 293 292 289
182 187 198 245 330 351 352 347 345 342 343 341 341 342 340 337 335 332 330 326 322 315 312 309 305 305 299 295 290 287 286 285 281 280 283 283 285 288 286 287 290 290 286
213 221 234 262 305 328 333 335 336 336 336 337 338 337 336 333 331 331 325 317 310 305 302 300 300 299 297 298 295 290 287 284 283 281 284 285 283 286 283 280 280 279 282
228 235 245 264 287 302 312 321 324 328 332 331 331 332 331 331 328 324 315 309 305 303 301 300 298 295 292 290 290 290 287 282 278 279 281 284 280 279 274 283 276 281 277
232 235 240 250 268 286 304 317 323 328 329 330 331 330 328 326 320 317 312 306 303 301 300 300 298 297 296 293 289 285 282 284 282 279 279 277 279 277 279 274 276 281 281
230 227 230 245 262 285 306 316 323 328 329 329 329 327 325 325 320 314 309 304 300 299 298 298 298 296 296 295 292 288 284 281 277 282 282 280 286 283 289 288 283 276 271
219 220 228 242 264 289 304 315 322 325 326 326 324 325 324 321 317 314 311 305 299 296 294 294 294 294 291 292 290 286 284 282 278 276 273 277 279 282 276 271 271 271 274
214 219 228 247 271 291 306 314 321 321 321 323 323 323 324 322 323 315 312 307 301 296 294 292 288 285 291 294 289 283 281 280 281 281 279 279 280 280 278 280 271 275 274
216 222 237 261 285 300 308 314 318 321 320 320 319 322 323 322 327 314 312 306 299 297 295 289 288 290 291 290 287 285 283 283 281 278 273 273 272 271 272 269 275 274 270
224 234 251 269 286 297 306 314 318 319 318 318 319 322 323 328 330 313 311 308 301 296 294 295 290 291 294 292 288 282 276 281 276 273 271 269 268 268 270 266 260 260 265
229 242 258 273 286 296 302 309 313 317 317 319 321 323 325 330 328 313 311 310 309 304 297 294 290 290 288 286 283 277 276 276 282 287 282 275 272 271 269 266 263 263 264
238 251 263 273 288 295 300 306 310 315 314 314 313 309 315 322 321 315 312 311 311 306 301 299 302 303 302 300 297 295 289 282 279 275 272 272 271 272 273 272 270 270 269
250 261 270 281 285 289 295 303 305 306 306 307 303 296 305 313 315 312 307 313 312 307 303 308 313 311 307 305 304 299 294 285 280 278 278 278 280 276 272 269 270 272 269
256 263 270 274 283 290 293 297 298 300 297 297 297 301 307 313 315 318 321 320 320 322 323 321 320 324 320 316 312 306 303 298 290 284 278 277 275 272 271 271 269 269 262
258 262 266 270 279 286 293 299 293 289 285 288 294 296 310 310 318 321 324 327 330 330 329 332 323 321 316 314 312 310 306 300 293 289 285 271 268 269 272 274 273 266 265
257 260 263 269 276 284 289 291 300 307 304 288 291 309 315 317 323 325 329 331 337 339 343 329 319 317 315 314 312 310 306 307 305 299 284 276 269 271 272 272 274 275 278
257 257 258 265 271 274 277 283 290 296 306 312 313 318 323 324 329 331 336 332 347 351 343 326 320 319 317 314 312 312 312 311 314 315 299 280 273 269 271 270 273 277 277
257 257 262 266 267 270 274 280 283 285 290 298 313 319 338 339 332 337 351 354 343 335 335 328 325 321 320 320 316 314 315 315 316 318 320 302 283 274 270 270 273 276 282
260 260 266 268 268 266 271 275 278 279 285 293 302 314 328 341 332 342 350 347 344 342 340 333 332 329 326 324 322 321 322 324 324 325 323 321 317 310 296 287 281 276 282
263 261 265 267 266 270 275 274 274 276 281 288 294 311 314 316 321 335 338 340 344 343 342 340 337 337 336 331 328 325 324 326 326 326 325 324 324 321 323 323 319 314 268
260 263 267 265 269 268 270 272 270 272 277 283 294 302 308 308 318 330 331 334 337 337 340 337 335 341 343 340 338 332 327 328 331 331 329 330 331 337 343 349 358 19 55
261 264 266 267 271 272 271 268 268 270 275 281 290 298 307 312 319 326 326 329 331 334 338 339 338 340 345 348 353 347 334 331 337 343 341 344 345 352 1 11 18 31 50
272 273 274 278 275 272 271 272 270 271 276 282 290 295 304 309 316 322 324 328 329 333 337 339 340 341 343 344 349 354 354 346 352 353 355 2 8 14 23 32 39 47 50
276 274 275 278 276 273 273 272 273 276 279 285 292 298 306 309 315 320 326 329 330 334 339 341 343 344 345 345 348 355 1 356 1 5 11 19 27 34 40 45 48 52 59
282 275 280 280 275 274 275 276 279 282 284 291 294 300 305 310 314 319 324 326 329 333 337 343 347 348 349 350 353 356 0 1 4 16 24 33 39 45 50 52 54 53 55